SeaSat 1 - Orbit

View from above orbital plane
View from above orbital plane
View from above satellite
View from above satellite

Ground track
Ground track

The orbit data is extracted from the following two-line orbital elements,

1 10967U 78064A   13139.52082959  .00000243  00000-0  11392-3 0   107
2 10967 107.9927 070.2873 0002510 300.3758 151.9475 14.42703823831694
Epoch (UTC): 19 May 2013 12:29:59
Eccentricity: 0.0002510
inclination: 107.9927°
perigee height: 748 km
apogee height: 751 km
right ascension of ascending node: 70.2873°
argument of perigee: 300.3758°
revolutions per day: 14.42703823
mean anomaly at epoch: 151.9475°
orbit number at epoch: 83169

The dashed part of the orbit path shows where the satellite is in the earth's shadow,  

Developed and maintained by Chris Peat, Heavens-Above GmbH. Please read the updated FAQ before sending e-mail. Imprint. DLR